This is the latest recevied weather packets stored in our database for station/object AD5L. If no packets are shown the sender has not sent any weather packets the latest 10 day(s).
| Time | Temp. | Humidity | Pressure | Rain* | Wind** | Luminosity | Snow |
|---|---|---|---|---|---|---|---|
| 1777848820 | 26.11° C | 41% | 1017.4 hPa | 0 mm | - | - | - |
| 1777848212 | 26.11° C | 39% | 1017.7 hPa | 0 mm | - | - | - |
| 1777847604 | 26.11° C | 40% | 1017.9 hPa | 0 mm | - | - | - |
| 1777847011 | 26.67° C | 40% | 1017.9 hPa | 0 mm | - | - | - |
| 1777846423 | 26.67° C | 39% | 1018 hPa | 0 mm | - | - | - |
| 1777845814 | 26.67° C | 39% | 1018.1 hPa | 0 mm | - | - | - |
| 1777845224 | 26.67° C | 40% | 1018.2 hPa | 0 mm | - | - | - |
| 1777844615 | 26.67° C | 41% | 1018.4 hPa | 0 mm | - | - | - |
| 1777844026 | 26.11° C | 40% | 1018.6 hPa | 0 mm | - | - | - |
| 1777843407 | 26.67° C | 39% | 1018.9 hPa | 0 mm | - | - | - |
| 1777842828 | 26.67° C | 40% | 1018.8 hPa | 0 mm | - | - | - |
| 1777842210 | 27.22° C | 39% | 1019.3 hPa | 0 mm | - | - | - |
| 1777841601 | 27.22° C | 40% | 1019.4 hPa | 0 mm | - | - | - |
| 1777841013 | 26.67° C | 37% | 1019.4 hPa | 0 mm | - | - | - |
| 1777840404 | 27.22° C | 37% | 1019.6 hPa | 0 mm | - | - | - |
| 1777839812 | 27.22° C | 38% | 1019.8 hPa | 0 mm | - | - | - |
| 1777839202 | 26.67° C | 39% | 1020.1 hPa | 0 mm | - | - | - |
| 1777838614 | 26.67° C | 36% | 1020.3 hPa | 0 mm | - | - | - |
| 1777838005 | 26.67° C | 34% | 1020.4 hPa | 0 mm | - | - | - |
| 1777837416 | 26.67° C | 38% | 1020.6 hPa | 0 mm | - | - | - |
| 1777836806 | 26.67° C | 38% | 1020.6 hPa | 0 mm | - | - | - |
| 1777836217 | 26.67° C | 39% | 1020.8 hPa | 0 mm | - | - | - |
| 1777835608 | 26.67° C | 38% | 1020.8 hPa | 0 mm | - | - | - |
| 1777835020 | 26.11° C | 39% | 1020.9 hPa | 0 mm | - | - | - |
| 1777834427 | 26.11° C | 40% | 1021 hPa | 0 mm | - | - | - |
* Rain latest hour (hover to see other rain measurements)
** Current wind speed in m/s (hover to see current wind gust speed)